Weather History for Newark Heath, OH

Change the Weather History Date:

Wednesday, January 15, 2014

  Actual Average Record
Temperature  
Mean Temperature 28 °F -  
Max Temperature 35 °F 33 °F - (-1)
Min Temperature 21 °F 16 °F - (-1)
Degree Days  
Heating Degree Days 37    
Moisture  
Dew Point 18 °F    
Average Humidity 65    
Maximum Humidity 78    
Minimum Humidity 51    
Precipitation  
Precipitation 0.00 in - - ()
Sea Level Pressure  
Sea Level Pressure 29.99 in    
Wind  
Wind Speed 12 mph (West)    
Max Wind Speed 20 mph    
Max Gust Speed 26 mph    
Visibility 8 miles    
Events Snow    
Averages and records for this station are not official NWS values.
T = Trace of Precipitation, MM = Missing Value Source: NWS Daily Summary

Daily Weather History Graph

Daily Weather History Graph

Search for Another Location

Airport:

Trip Planner

Search our weather history database for the weather conditions in past years. The results will help you decide how hot, cold, wet, or windy it might be!

Date:

Astronomy

Jan. 15, 2014 Rise Set
Actual Time 7:49 AM EST 5:29 PM EST
Civil Twilight 7:20 AM EST 5:58 PM EST
Nautical Twilight 6:46 AM EST 6:32 PM EST
Astronomical Twilight 6:14 AM EST 7:04 PM EST
Moon 5:25 PM EST (1/15) 7:05 AM EST (1/15)
Length of Visible Light 10h 38m
Length of Day
9h 39m
Full, 100% of the Moon is Illuminated
Jan 15
Full
Jan 15
Full
Jan 24
Last Quarter
Jan 30
New
Feb 6
First Quarter

Hourly Weather History & Observations

Time (EST) Temp. Windchill Dew Point Humidity Pressure Visibility Wind Dir Wind Speed Gust Speed Precip Events Conditions
12:17 AM 35.1 °F 26.9 °F 26.1 °F 70% 29.83 in 10.0 mi West 11.5 mph - N/A   Overcast
12:54 AM 34.0 °F 25.5 °F 26.1 °F 73% 29.87 in 10.0 mi West 11.5 mph - N/A   Overcast
1:06 AM 34.0 °F 24.2 °F 25.0 °F 70% 29.85 in 10.0 mi WNW 15.0 mph - N/A   Overcast
1:54 AM 34.0 °F 26.6 °F 25.0 °F 70% 29.87 in 10.0 mi WSW 9.2 mph - N/A   Overcast
2:31 AM 34.0 °F 24.6 °F 24.1 °F 67% 29.86 in 10.0 mi West 13.8 mph - N/A   Overcast
2:54 AM 33.1 °F 23.4 °F 24.1 °F 70% 29.89 in 10.0 mi WSW 13.8 mph - N/A   Overcast
3:25 AM 30.9 °F 19.1 °F 18.0 °F 59% 29.89 in 10.0 mi West 18.4 mph 26.5 mph N/A   Scattered Clouds
3:54 AM 30.0 °F 18.7 °F 16.0 °F 56% 29.91 in 10.0 mi West 16.1 mph 25.3 mph N/A   Clear
4:54 AM 28.9 °F 16.1 °F 15.1 °F 56% 29.93 in 10.0 mi West 19.6 mph 25.3 mph N/A   Clear
5:54 AM 28.9 °F 18.6 °F 15.1 °F 56% 29.95 in 10.0 mi WSW 12.7 mph - N/A   Mostly Cloudy
6:54 AM 28.9 °F 19.2 °F 16.0 °F 58% 29.96 in 10.0 mi SW 11.5 mph - N/A   Overcast
7:54 AM 28.9 °F 20.4 °F 16.0 °F 58% 29.98 in 10.0 mi WSW 9.2 mph - N/A   Overcast
8:54 AM 28.9 °F 19.2 °F 16.0 °F 58% 30.00 in 10.0 mi WSW 11.5 mph - N/A   Overcast
9:54 AM 30.0 °F 20.5 °F 18.0 °F 61% 30.02 in 10.0 mi WSW 11.5 mph - N/A   Overcast
10:18 AM 28.0 °F 18.1 °F 19.0 °F 69% 30.01 in 2.5 mi WSW 11.5 mph - 0.00 in Snow Light Snow
10:26 AM 28.0 °F 18.6 °F 21.0 °F 75% 30.01 in 1.5 mi West 10.4 mph - 0.00 in Snow Light Snow
10:38 AM 27.0 °F 16.7 °F 19.9 °F 75% 30.01 in 0.8 mi WNW 11.5 mph - 0.00 in Snow Light Snow
10:45 AM 26.1 °F 15.0 °F 19.9 °F 78% 30.02 in 0.5 mi West 12.7 mph - 0.00 in Snow Snow
10:54 AM 26.1 °F 15.6 °F 19.9 °F 78% 30.04 in 0.8 mi West 11.5 mph - 0.00 in Snow Light Snow
11:00 AM 26.1 °F 15.0 °F 19.9 °F 78% 30.02 in 2.0 mi West 12.7 mph - 0.00 in Snow Light Snow
11:08 AM 27.0 °F 15.6 °F 19.9 °F 75% 30.02 in 2.0 mi West 13.8 mph - 0.00 in Snow Light Snow
11:14 AM 27.0 °F 16.1 °F 19.9 °F 75% 30.02 in 3.0 mi WSW 12.7 mph - 0.00 in Snow Light Snow
11:54 AM 28.9 °F 19.2 °F 19.0 °F 67% 30.03 in 10.0 mi West 11.5 mph - 0.00 in   Overcast
12:54 PM 28.0 °F 19.3 °F 16.0 °F 61% 30.01 in 10.0 mi West 9.2 mph - 0.00 in   Overcast
1:54 PM 28.9 °F 19.2 °F 16.0 °F 58% 30.01 in 10.0 mi West 11.5 mph - N/A   Overcast
2:54 PM 28.9 °F 18.6 °F 12.9 °F 51% 30.01 in 10.0 mi West 12.7 mph - N/A   Overcast
3:54 PM 28.9 °F 21.1 °F 12.9 °F 51% 30.03 in 10.0 mi West 8.1 mph - N/A   Overcast
4:54 PM 28.0 °F 19.3 °F 14.0 °F 56% 30.03 in 10.0 mi WNW 9.2 mph - N/A   Overcast
5:54 PM 27.0 °F 17.3 °F 15.1 °F 61% 30.05 in 10.0 mi West 10.4 mph - N/A   Overcast
6:54 PM 27.0 °F 19.5 °F 14.0 °F 58% 30.07 in 10.0 mi West 6.9 mph - N/A   Overcast
7:54 PM 26.1 °F 16.8 °F 12.9 °F 58% 30.08 in 10.0 mi West 9.2 mph - N/A   Overcast
8:54 PM 24.1 °F 17.0 °F 12.9 °F 62% 30.07 in 10.0 mi West 5.8 mph - N/A   Scattered Clouds
9:54 PM 24.1 °F 19.7 °F 14.0 °F 65% 30.06 in 10.0 mi WSW 3.5 mph - N/A   Mostly Cloudy
10:54 PM 21.9 °F - 15.1 °F 75% 30.06 in 10.0 mi Calm Calm - N/A   Scattered Clouds
11:54 PM 23.0 °F 18.4 °F 15.1 °F 72% 30.04 in 10.0 mi SSW 3.5 mph - N/A   Overcast